User: anonymous   Login
Location: Maiden
(35.5760°N, 81.2120°W)
Time: 11:06:37
(UTC-04:00)
Language:

Courier 1B - Orbit

View from above orbital plane
View from above orbital plane
View from above satellite
View from above satellite

Ground track
Ground track

The orbit data is extracted from the following two-line orbital elements,

1    58U 60013A   20217.17817396  .00000089  00000-0  76583-5 0  9998
2    58  28.3252 212.5116 0165101 104.3742 257.5189 13.46323273945582
Epoch (UTC): 04 August 2020 04:16:34
Eccentricity: 0.0165101
inclination: 28.3252°
perigee height: 962 km
apogee height: 1209 km
right ascension of ascending node: 212.5116°
argument of perigee: 104.3742°
revolutions per day: 13.46323273
mean anomaly at epoch: 257.5189°
orbit number at epoch: 94558

The dashed part of the orbit path shows where the satellite is in the earth's shadow,  

DLR